This is the latest recevied weather packets stored in our database for station/object OK1TBF-6. If no packets are shown the sender has not sent any weather packets the latest 10 day(s).
| Time | Temp. | Humidity | Pressure | Rain* | Wind** | Luminosity | Snow |
|---|---|---|---|---|---|---|---|
| 1777774205 | 13.33° C | 46% | 1009.4 hPa | 0 mm | - | - | - |
| 1777771806 | 13.89° C | 44% | 1009.6 hPa | 0 mm | - | - | - |
| 1777771505 | 14.44° C | 44% | 1009.8 hPa | 0 mm | - | - | - |
| 1777766105 | 14.44° C | 41% | 1010.2 hPa | 0 mm | - | - | - |
| 1777765804 | 14.44° C | 41% | 1010.2 hPa | 0 mm | - | - | - |
| 1777765504 | 13.89° C | 43% | 1010.4 hPa | 0 mm | - | - | - |
| 1777764604 | 13.89° C | 45% | 1010.3 hPa | 0 mm | - | - | - |
| 1777763703 | 14.44° C | 43% | 1010.3 hPa | 0 mm | - | - | - |
| 1777761604 | 14.44° C | 43% | 1010.5 hPa | 0 mm | - | - | - |
| 1777761004 | 15° C | 42% | 1010.5 hPa | 0 mm | - | - | - |
| 1777760703 | 15° C | 41% | 1010.5 hPa | 0 mm | - | - | - |
| 1777758303 | 16.11° C | 39% | 1010.6 hPa | 0 mm | - | - | - |
| 1777757403 | 16.11° C | 39% | 1010.7 hPa | 0 mm | - | - | - |
| 1777756503 | 16.11° C | 38% | 1010.6 hPa | 0 mm | - | - | - |
| 1777755004 | 16.67° C | 39% | 1011 hPa | 0 mm | - | - | - |
| 1777754406 | 16.67° C | 39% | 1010.9 hPa | 0 mm | - | - | - |
| 1777751707 | 17.22° C | 38% | 1010.9 hPa | 0 mm | - | - | - |
| 1777750508 | 18.33° C | 35% | 1010.9 hPa | 0 mm | - | - | - |
| 1777745708 | 20° C | 28% | 1010.7 hPa | 0 mm | - | - | - |
| 1777740308 | 22.22° C | 29% | 1011.1 hPa | 0 mm | - | - | - |
| 1777737007 | 21.67° C | 29% | 1011.7 hPa | 0 mm | - | - | - |
| 1777736406 | 22.22° C | 29% | 1011.8 hPa | 0 mm | - | - | - |
| 1777732806 | 21.67° C | 30% | 1012.2 hPa | 0 mm | - | - | - |
| 1777731905 | 22.22° C | 31% | 1012.3 hPa | 0 mm | - | - | - |
| 1777731005 | 21.67° C | 31% | 1012.7 hPa | 0 mm | - | - | - |
* Rain latest hour (hover to see other rain measurements)
** Current wind speed in m/s (hover to see current wind gust speed)